Hauptseite
METAR-TAF:

METAR-TAF

Flughäfen :

Topcliffe, England

Breite: 54-12N, Länge: 001-23W, Höhe: 28 m

Beobachtung

Neuester Wetterbericht von vor 1 Stunde und 26 Minuten, um 10:50 UTC
Wind 18 kt aus Nord
Temperatur 11°C
Luftfeuchtigkeit 94%
Luftdruck 1013 hPa
Sichtweite: 9000 m
feuchter Dunst

METAR: EGXZ 031050Z AUTO 01018KT 9000 BR SCT007/// BKN012/// BKN049/// 11/10 Q1013 REDZ

Zeit: 13:16 (12:16 UTC)


TAF: fehlend

Wetterbeobachtungen und Prognosen von mehr als 4000 Flughäfen (METAR und TAF Bericht).

Die verfügbaren Stationen werden durch gelbe und rote Markierungen auf der Karte dargestellt.

Führen Sie die Maus auf sie, um den Namen der Station zu sehen.

Darauf klicken, um die Beobachtung von Wetterbeobachtungen und Prognosen zu sehen.

Um die Karte zu ändern : klicken Sie auf den grünen Tasten mit einem schwarzen Kreuz Zum Vergrößern, auf den grünen Button mit einem Gedankenstrich zu verkleinern, oder auf die grünen Pfeile für benachbarte Karten.


METAR-TAF: